owner,sensor,date,latitude,longitude,vertical_datum,direction_of_sea_water_velocity,sea_water_speed,upward_sea_water_velocity,qcFlag 
TABS,ioos:station:wmo:42051:1,2006-04-01T00:00:00Z,29.6350,-93.6417,2.0,255.5352683,45.12016179,-99999.0,'11111222,11111222,99999999' 
TABS,ioos:station:wmo:42051:1,2006-04-01T00:30:00Z,29.6350,-93.6417,2.0,255.6768926,43.65695821,-99999.0,'11111222,11111222,99999999' 
TABS,ioos:station:wmo:42051:1,2006-04-01T01:00:00Z,29.6350,-93.6417,2.0,254.8629913,40.28774628,-99999.0,'11111222,11111222,99999999' 
TABS,ioos:station:wmo:42051:1,2006-04-01T01:30:00Z,29.6350,-93.6417,2.0,258.0926839,38.77426466,-99999.0,'11111222,11111222,99999999' 
TABS,ioos:station:wmo:42051:1,2006-04-01T02:00:00Z,29.6350,-93.6417,2.0,256.6017532,39.61822813,-99999.0,'11111222,11111222,99999999' 
TABS,ioos:station:wmo:42051:1,2006-04-01T03:00:00Z,29.6350,-93.6417,2.0,258.8429455,39.58814469,-99999.0,'11111222,11111222,99999999' 
TABS,ioos:station:wmo:42051:1,2006-04-01T03:30:00Z,29.6350,-93.6417,2.0,254.7366915,38.63265199,-99999.0,'11111222,11111222,99999999' 
TABS,ioos:station:wmo:42051:1,2006-04-01T04:00:00Z,29.6350,-93.6417,2.0,259.7426476,39.59272787,-99999.0,'11111222,11111222,99999999' 
TABS,ioos:station:wmo:42051:1,2006-04-01T04:30:00Z,29.6350,-93.6417,2.0,260.8946226,38.48490743,-99999.0,'11111222,11111222,99999999' 
TABS,ioos:station:wmo:42051:1,2006-04-01T05:30:00Z,29.6350,-93.6417,2.0,269.2155668,38.73362622,-99999.0,'11111222,11111222,99999999' 
TABS,ioos:station:wmo:42051:1,2006-04-01T06:00:00Z,29.6350,-93.6417,2.0,266.3207692,35.22257941,-99999.0,'11111222,11111222,99999999' 
TABS,ioos:station:wmo:42051:1,2006-04-01T06:30:00Z,29.6350,-93.6417,2.0,268.5202755,32.15071539,-99999.0,'11111222,11111222,99999999' 
TABS,ioos:station:wmo:42051:1,2006-04-01T07:00:00Z,29.6350,-93.6417,2.0,270.3196134,32.31050139,-99999.0,'11111222,11111222,99999999' 
TABS,ioos:station:wmo:42051:1,2006-04-01T07:30:00Z,29.6350,-93.6417,2.0,274.5673596,36.04444201,-99999.0,'11111222,11111222,99999999' 
TABS,ioos:station:wmo:42051:1,2006-04-01T08:00:00Z,29.6350,-93.6417,2.0,269.6018141,34.57083308,-99999.0,'11111222,11111222,99999999' 
TABS,ioos:station:wmo:42051:1,2006-04-01T08:30:00Z,29.6350,-93.6417,2.0,263.1084379,39.50539204,-99999.0,'11111222,11111222,99999999' 
TABS,ioos:station:wmo:42051:1,2006-04-01T09:00:00Z,29.6350,-93.6417,2.0,258.8954153,44.23820182,-99999.0,'11111222,11111222,99999999' 
TABS,ioos:station:wmo:42051:1,2006-04-01T09:30:00Z,29.6350,-93.6417,2.0,256.9814441,45.5917679,-99999.0,'11111222,11111222,99999999' 
TABS,ioos:station:wmo:42051:1,2006-04-01T10:00:00Z,29.6350,-93.6417,2.0,255.4446516,46.07880641,-99999.0,'11111222,11111222,99999999' 
TABS,ioos:station:wmo:42051:1,2006-04-01T10:30:00Z,29.6350,-93.6417,2.0,253.5977914,50.00495275,-99999.0,'11111222,11111222,99999999' 
TABS,ioos:station:wmo:42051:1,2006-04-01T11:00:00Z,29.6350,-93.6417,2.0,255.9216382,46.62021021,-99999.0,'11111222,11111222,99999999' 
TABS,ioos:station:wmo:42051:1,2006-04-01T11:30:00Z,29.6350,-93.6417,2.0,246.1764987,48.42606323,-99999.0,'11111222,11111222,99999999' 
TABS,ioos:station:wmo:42051:1,2006-04-01T12:00:00Z,29.6350,-93.6417,2.0,244.5462465,47.024416,-99999.0,'11111222,11111222,99999999' 
TABS,ioos:station:wmo:42051:1,2006-04-01T12:30:00Z,29.6350,-93.6417,2.0,246.922082,41.02284729,-99999.0,'11111222,11111222,99999999' 
TABS,ioos:station:wmo:42051:1,2006-04-01T13:00:00Z,29.6350,-93.6417,2.0,240.458827,40.74690909,-99999.0,'11111222,11111222,99999999' 
TABS,ioos:station:wmo:42051:1,2006-04-01T13:30:00Z,29.6350,-93.6417,2.0,246.9216651,36.17500242,-99999.0,'11111222,11111222,99999999' 
TABS,ioos:station:wmo:42051:1,2006-04-01T14:00:00Z,29.6350,-93.6417,2.0,253.1146679,42.55452972,-99999.0,'11111222,11111222,99999999' 
TABS,ioos:station:wmo:42051:1,2006-04-01T14:30:00Z,29.6350,-93.6417,2.0,250.4709954,43.40700635,-99999.0,'11111222,11111222,99999999' 
TABS,ioos:station:wmo:42051:1,2006-04-01T15:00:00Z,29.6350,-93.6417,2.0,256.5669143,44.89826055,-99999.0,'11111222,11111222,99999999' 
TABS,ioos:station:wmo:42051:1,2006-04-01T16:30:00Z,29.6350,-93.6417,2.0,257.4471414,60.414053,-99999.0,'11111222,11111222,99999999' 
TABS,ioos:station:wmo:42051:1,2006-04-01T17:00:00Z,29.6350,-93.6417,2.0,256.5762828,59.40279876,-99999.0,'11111222,11111222,99999999' 
TABS,ioos:station:wmo:42051:1,2006-04-01T17:30:00Z,29.6350,-93.6417,2.0,259.4130015,58.56690618,-99999.0,'11111222,11111222,99999999' 
TABS,ioos:station:wmo:42051:1,2006-04-01T18:00:00Z,29.6350,-93.6417,2.0,259.2006619,56.73473187,-99999.0,'11111222,11111222,99999999' 
TABS,ioos:station:wmo:42051:1,2006-04-01T18:30:00Z,29.6350,-93.6417,2.0,264.6946837,60.56943206,-99999.0,'11111222,11111222,99999999' 
TABS,ioos:station:wmo:42051:1,2006-04-01T19:00:00Z,29.6350,-93.6417,2.0,262.3899577,58.07141896,-99999.0,'11111222,11111222,99999999' 
TABS,ioos:station:wmo:42051:1,2006-04-01T19:30:00Z,29.6350,-93.6417,2.0,262.5381023,58.29360943,-99999.0,'11111222,11111222,99999999' 
TABS,ioos:station:wmo:42051:1,2006-04-01T20:00:00Z,29.6350,-93.6417,2.0,262.4299254,56.09887878,-99999.0,'11111222,11111222,99999999' 
TABS,ioos:station:wmo:42051:1,2006-04-01T20:30:00Z,29.6350,-93.6417,2.0,269.3454409,61.31399596,-99999.0,'11111222,11111222,99999999' 
TABS,ioos:station:wmo:42051:1,2006-04-01T21:00:00Z,29.6350,-93.6417,2.0,270.4221277,59.78161925,-99999.0,'11111222,11111222,99999999' 
TABS,ioos:station:wmo:42051:1,2006-04-01T22:00:00Z,29.6350,-93.6417,2.0,267.5370588,63.53867562,-99999.0,'11111222,11111222,99999999' 
TABS,ioos:station:wmo:42051:1,2006-04-01T22:30:00Z,29.6350,-93.6417,2.0,266.8140425,61.18454135,-99999.0,'11111222,11111222,99999999' 
TABS,ioos:station:wmo:42051:1,2006-04-01T23:00:00Z,29.6350,-93.6417,2.0,267.8203222,64.16640866,-99999.0,'11111222,11111222,99999999' 
TABS,ioos:station:wmo:42051:1,2006-04-01T23:30:00Z,29.6350,-93.6417,2.0,263.6875743,58.39398942,-99999.0,'11111222,11111222,99999999' 
TABS,ioos:station:wmo:42051:1,2006-04-02T00:00:00Z,29.6350,-93.6417,2.0,261.7846313,53.46864502,-99999.0,'11111222,11111222,99999999' 
TABS,ioos:station:wmo:42051:1,2006-04-02T00:30:00Z,29.6350,-93.6417,2.0,258.2683714,46.67494081,-99999.0,'11111222,11111222,99999999' 
TABS,ioos:station:wmo:42051:1,2006-04-02T01:00:00Z,29.6350,-93.6417,2.0,260.0817973,40.11955259,-99999.0,'11111222,11111222,99999999' 
TABS,ioos:station:wmo:42051:1,2006-04-02T01:30:00Z,29.6350,-93.6417,2.0,243.3445135,36.98013791,-99999.0,'11111222,11111222,99999999' 
TABS,ioos:station:wmo:42051:1,2006-04-02T02:00:00Z,29.6350,-93.6417,2.0,243.0638996,33.17947106,-99999.0,'11111222,11111222,99999999' 
TABS,ioos:station:wmo:42051:1,2006-04-02T02:30:00Z,29.6350,-93.6417,2.0,246.2376518,31.91557143,-99999.0,'11111222,11111222,99999999' 
TABS,ioos:station:wmo:42051:1,2006-04-02T03:00:00Z,29.6350,-93.6417,2.0,252.040999,30.81113597,-99999.0,'11111222,11111222,99999999' 
TABS,ioos:station:wmo:42051:1,2006-04-02T03:30:00Z,29.6350,-93.6417,2.0,240.6959679,34.63152466,-99999.0,'11111222,11111222,99999999' 
TABS,ioos:station:wmo:42051:1,2006-04-02T04:00:00Z,29.6350,-93.6417,2.0,253.3929223,33.79981805,-99999.0,'11111222,11111222,99999999' 
TABS,ioos:station:wmo:42051:1,2006-04-02T04:30:00Z,29.6350,-93.6417,2.0,239.5748014,33.55003726,-99999.0,'11111222,11111222,99999999' 
TABS,ioos:station:wmo:42051:1,2006-04-02T05:00:00Z,29.6350,-93.6417,2.0,243.2689277,32.48125921,-99999.0,'11111222,11111222,99999999' 
TABS,ioos:station:wmo:42051:1,2006-04-02T05:30:00Z,29.6350,-93.6417,2.0,219.8778151,30.33580228,-99999.0,'11111222,11111222,99999999' 
TABS,ioos:station:wmo:42051:1,2006-04-02T06:00:00Z,29.6350,-93.6417,2.0,227.2598471,31.91534427,-99999.0,'11111222,11111222,99999999' 
TABS,ioos:station:wmo:42051:1,2006-04-02T06:30:00Z,29.6350,-93.6417,2.0,212.8924856,29.49903897,-99999.0,'11111222,11111222,99999999' 
TABS,ioos:station:wmo:42051:1,2006-04-02T07:00:00Z,29.6350,-93.6417,2.0,203.0682185,20.23831268,-99999.0,'11111222,11111222,99999999' 
TABS,ioos:station:wmo:42051:1,2006-04-02T07:30:00Z,29.6350,-93.6417,2.0,198.6599063,21.72185305,-99999.0,'11111222,11111222,99999999' 
TABS,ioos:station:wmo:42051:1,2006-04-02T08:00:00Z,29.6350,-93.6417,2.0,196.0564363,17.67971154,-99999.0,'11111222,11111222,99999999' 
TABS,ioos:station:wmo:42051:1,2006-04-02T08:30:00Z,29.6350,-93.6417,2.0,193.9195458,20.28572158,-99999.0,'11111222,11111222,99999999' 
TABS,ioos:station:wmo:42051:1,2006-04-02T09:00:00Z,29.6350,-93.6417,2.0,220.4691238,16.0236107,-99999.0,'11111222,11111222,99999999' 
TABS,ioos:station:wmo:42051:1,2006-04-02T09:30:00Z,29.6350,-93.6417,2.0,203.9448189,20.05613373,-99999.0,'11111222,11111222,99999999' 
TABS,ioos:station:wmo:42051:1,2006-04-02T10:00:00Z,29.6350,-93.6417,2.0,257.2681264,20.23756902,-99999.0,'11111222,11111222,99999999' 
TABS,ioos:station:wmo:42051:1,2006-04-02T10:30:00Z,29.6350,-93.6417,2.0,242.5820079,24.34453121,-99999.0,'11111222,11111222,99999999' 
TABS,ioos:station:wmo:42051:1,2006-04-02T11:00:00Z,29.6350,-93.6417,2.0,227.3099698,34.55611234,-99999.0,'11111222,11111222,99999999' 
TABS,ioos:station:wmo:42051:1,2006-04-02T12:00:00Z,29.6350,-93.6417,2.0,245.4836497,25.01523536,-99999.0,'11111222,11111222,99999999' 
TABS,ioos:station:wmo:42051:1,2006-04-02T13:00:00Z,29.6350,-93.6417,2.0,226.6455992,39.63554592,-99999.0,'11111222,11111222,99999999' 
TABS,ioos:station:wmo:42051:1,2006-04-02T13:30:00Z,29.6350,-93.6417,2.0,228.1656496,38.92199378,-99999.0,'11111222,11111222,99999999' 
TABS,ioos:station:wmo:42051:1,2006-04-02T14:00:00Z,29.6350,-93.6417,2.0,229.5295105,35.5441486,-99999.0,'11111222,11111222,99999999' 
TABS,ioos:station:wmo:42051:1,2006-04-02T14:30:00Z,29.6350,-93.6417,2.0,225.5892549,38.48278836,-99999.0,'11111222,11111222,99999999' 
TABS,ioos:station:wmo:42051:1,2006-04-02T15:30:00Z,29.6350,-93.6417,2.0,221.717294,27.16918843,-99999.0,'11111222,11111222,99999999' 
TABS,ioos:station:wmo:42051:1,2006-04-02T16:00:00Z,29.6350,-93.6417,2.0,218.0538384,19.35413393,-99999.0,'11111222,11111222,99999999' 
TABS,ioos:station:wmo:42051:1,2006-04-02T16:30:00Z,29.6350,-93.6417,2.0,214.4978831,17.1086557,-99999.0,'11111222,11111222,99999999' 
TABS,ioos:station:wmo:42051:1,2006-04-02T17:00:00Z,29.6350,-93.6417,2.0,214.0985536,26.43491063,-99999.0,'11111222,11111222,99999999' 
TABS,ioos:station:wmo:42051:1,2006-04-02T17:30:00Z,29.6350,-93.6417,2.0,253.2158075,29.85164652,-99999.0,'11111222,11111222,99999999' 
TABS,ioos:station:wmo:42051:1,2006-04-02T18:00:00Z,29.6350,-93.6417,2.0,248.9558627,39.46185247,-99999.0,'11111222,11111222,99999999' 
TABS,ioos:station:wmo:42051:1,2006-04-02T18:30:00Z,29.6350,-93.6417,2.0,257.8361856,39.62966187,-99999.0,'11111222,11111222,99999999' 
TABS,ioos:station:wmo:42051:1,2006-04-02T19:00:00Z,29.6350,-93.6417,2.0,259.8674443,40.35942145,-99999.0,'11111222,11111222,99999999' 
TABS,ioos:station:wmo:42051:1,2006-04-02T19:30:00Z,29.6350,-93.6417,2.0,261.7212882,42.64433843,-99999.0,'11111222,11111222,99999999' 
TABS,ioos:station:wmo:42051:1,2006-04-02T20:00:00Z,29.6350,-93.6417,2.0,265.5992899,55.13251128,-99999.0,'11111222,11111222,99999999' 
TABS,ioos:station:wmo:42051:1,2006-04-02T20:30:00Z,29.6350,-93.6417,2.0,264.4851981,53.17609425,-99999.0,'11111222,11111222,99999999' 
TABS,ioos:station:wmo:42051:1,2006-04-02T21:00:00Z,29.6350,-93.6417,2.0,265.084856,46.92252018,-99999.0,'11111222,11111222,99999999' 
TABS,ioos:station:wmo:42051:1,2006-04-02T22:00:00Z,29.6350,-93.6417,2.0,263.3398079,54.84004468,-99999.0,'11111222,11111222,99999999' 
TABS,ioos:station:wmo:42051:1,2006-04-02T22:30:00Z,29.6350,-93.6417,2.0,263.2576125,51.02282822,-99999.0,'11111222,11111222,99999999' 
TABS,ioos:station:wmo:42051:1,2006-04-02T23:00:00Z,29.6350,-93.6417,2.0,262.3373653,45.37514077,-99999.0,'11111222,11111222,99999999' 
TABS,ioos:station:wmo:42051:1,2006-04-02T23:30:00Z,29.6350,-93.6417,2.0,258.7475042,44.68900648,-99999.0,'11111222,11111222,99999999' 
TABS,ioos:station:wmo:42051:1,2006-04-03T00:00:00Z,29.6350,-93.6417,2.0,258.2698668,50.32082869,-99999.0,'11111222,11111222,99999999' 
TABS,ioos:station:wmo:42051:1,2006-04-03T00:30:00Z,29.6350,-93.6417,2.0,249.0870803,55.30301258,-99999.0,'11111222,11111222,99999999' 
TABS,ioos:station:wmo:42051:1,2006-04-03T01:00:00Z,29.6350,-93.6417,2.0,251.1602935,64.07250346,-99999.0,'11111222,11111222,99999999' 
TABS,ioos:station:wmo:42051:1,2006-04-03T01:30:00Z,29.6350,-93.6417,2.0,243.5934745,58.0574922,-99999.0,'11111222,11111222,99999999' 
TABS,ioos:station:wmo:42051:1,2006-04-03T02:00:00Z,29.6350,-93.6417,2.0,243.0143361,64.02034833,-99999.0,'11111222,11111222,99999999' 
TABS,ioos:station:wmo:42051:1,2006-04-03T02:30:00Z,29.6350,-93.6417,2.0,244.7076171,69.44705177,-99999.0,'11111222,11111222,99999999' 
TABS,ioos:station:wmo:42051:1,2006-04-03T03:00:00Z,29.6350,-93.6417,2.0,245.7159171,69.54316717,-99999.0,'11111222,11111222,99999999' 
TABS,ioos:station:wmo:42051:1,2006-04-03T03:30:00Z,29.6350,-93.6417,2.0,243.6172746,64.51983338,-99999.0,'11111222,11111222,99999999' 
TABS,ioos:station:wmo:42051:1,2006-04-03T04:00:00Z,29.6350,-93.6417,2.0,244.1353841,66.91263109,-99999.0,'11111222,11111222,99999999' 
TABS,ioos:station:wmo:42051:1,2006-04-03T04:30:00Z,29.6350,-93.6417,2.0,248.5913645,62.24468572,-99999.0,'11111222,11111222,99999999' 
TABS,ioos:station:wmo:42051:1,2006-04-03T05:00:00Z,29.6350,-93.6417,2.0,246.5891553,59.65029422,-99999.0,'11111222,11111222,99999999' 
TABS,ioos:station:wmo:42051:1,2006-04-03T05:30:00Z,29.6350,-93.6417,2.0,247.5805516,63.21808048,-99999.0,'11111222,11111222,99999999' 
TABS,ioos:station:wmo:42051:1,2006-04-03T06:00:00Z,29.6350,-93.6417,2.0,254.5539223,58.27468833,-99999.0,'11111222,11111222,99999999' 
TABS,ioos:station:wmo:42051:1,2006-04-03T06:30:00Z,29.6350,-93.6417,2.0,253.2041024,50.73421429,-99999.0,'11111222,11111222,99999999' 
TABS,ioos:station:wmo:42051:1,2006-04-03T07:00:00Z,29.6350,-93.6417,2.0,248.3988381,44.54858471,-99999.0,'11111222,11111222,99999999' 
TABS,ioos:station:wmo:42051:1,2006-04-03T07:30:00Z,29.6350,-93.6417,2.0,245.7847561,42.64190662,-99999.0,'11111222,11111222,99999999' 
TABS,ioos:station:wmo:42051:1,2006-04-03T08:00:00Z,29.6350,-93.6417,2.0,251.1202018,34.24217283,-99999.0,'11111222,11111222,99999999' 
TABS,ioos:station:wmo:42051:1,2006-04-03T08:30:00Z,29.6350,-93.6417,2.0,239.1633227,29.30232073,-99999.0,'11111222,11111222,99999999' 
TABS,ioos:station:wmo:42051:1,2006-04-03T09:00:00Z,29.6350,-93.6417,2.0,227.646158,28.48435711,-99999.0,'11111222,11111222,99999999' 
TABS,ioos:station:wmo:42051:1,2006-04-03T09:30:00Z,29.6350,-93.6417,2.0,223.29889,28.8273013,-99999.0,'11111222,11111222,99999999' 
TABS,ioos:station:wmo:42051:1,2006-04-03T10:00:00Z,29.6350,-93.6417,2.0,220.3932888,35.30674865,-99999.0,'11111222,11111222,99999999' 
TABS,ioos:station:wmo:42051:1,2006-04-03T10:30:00Z,29.6350,-93.6417,2.0,220.2147564,34.75521831,-99999.0,'11111222,11111222,99999999' 
TABS,ioos:station:wmo:42051:1,2006-04-03T11:00:00Z,29.6350,-93.6417,2.0,226.9243354,32.21274437,-99999.0,'11111222,11111222,99999999' 
TABS,ioos:station:wmo:42051:1,2006-04-03T11:30:00Z,29.6350,-93.6417,2.0,210.3358232,38.82617931,-99999.0,'11111222,11111222,99999999' 
TABS,ioos:station:wmo:42051:1,2006-04-03T12:00:00Z,29.6350,-93.6417,2.0,214.5763783,43.73502601,-99999.0,'11111222,11111222,99999999' 
TABS,ioos:station:wmo:42051:1,2006-04-03T12:30:00Z,29.6350,-93.6417,2.0,221.3536303,47.47932708,-99999.0,'11111222,11111222,99999999' 
TABS,ioos:station:wmo:42051:1,2006-04-03T13:00:00Z,29.6350,-93.6417,2.0,225.4780294,56.74729685,-99999.0,'11111222,11111222,99999999' 
TABS,ioos:station:wmo:42051:1,2006-04-03T13:30:00Z,29.6350,-93.6417,2.0,230.3251161,57.67308298,-99999.0,'11111222,11111222,99999999' 
TABS,ioos:station:wmo:42051:1,2006-04-03T14:00:00Z,29.6350,-93.6417,2.0,227.8213764,56.16287475,-99999.0,'11111222,11111222,99999999' 
TABS,ioos:station:wmo:42051:1,2006-04-03T14:30:00Z,29.6350,-93.6417,2.0,227.488631,58.61788294,-99999.0,'11111222,11111222,99999999' 
TABS,ioos:station:wmo:42051:1,2006-04-03T15:00:00Z,29.6350,-93.6417,2.0,226.8092847,59.11532458,-99999.0,'11111222,11111222,99999999' 
TABS,ioos:station:wmo:42051:1,2006-04-03T15:30:00Z,29.6350,-93.6417,2.0,225.738026,57.06825562,-99999.0,'11111222,11111222,99999999' 
TABS,ioos:station:wmo:42051:1,2006-04-03T16:00:00Z,29.6350,-93.6417,2.0,223.9372829,55.29818532,-99999.0,'11111222,11111222,99999999' 
TABS,ioos:station:wmo:42051:1,2006-04-03T16:30:00Z,29.6350,-93.6417,2.0,229.1880122,57.60627136,-99999.0,'11111222,11111222,99999999' 
TABS,ioos:station:wmo:42051:1,2006-04-03T17:00:00Z,29.6350,-93.6417,2.0,230.6186565,61.16873793,-99999.0,'11111222,11111222,99999999' 
TABS,ioos:station:wmo:42051:1,2006-04-03T17:30:00Z,29.6350,-93.6417,2.0,227.1793831,53.72949376,-99999.0,'11111222,11111222,99999999' 
TABS,ioos:station:wmo:42051:1,2006-04-03T18:00:00Z,29.6350,-93.6417,2.0,220.108588,51.99906634,-99999.0,'11111222,11111222,99999999' 
TABS,ioos:station:wmo:42051:1,2006-04-03T18:30:00Z,29.6350,-93.6417,2.0,215.6299649,56.11513343,-99999.0,'11111222,11111222,99999999' 
TABS,ioos:station:wmo:42051:1,2006-04-03T19:00:00Z,29.6350,-93.6417,2.0,222.4571711,51.16711932,-99999.0,'11111222,11111222,99999999' 
TABS,ioos:station:wmo:42051:1,2006-04-03T19:30:00Z,29.6350,-93.6417,2.0,234.9760527,47.55068559,-99999.0,'11111222,11111222,99999999' 
TABS,ioos:station:wmo:42051:1,2006-04-03T20:00:00Z,29.6350,-93.6417,2.0,249.3680761,45.2949633,-99999.0,'11111222,11111222,99999999' 
TABS,ioos:station:wmo:42051:1,2006-04-03T20:30:00Z,29.6350,-93.6417,2.0,247.2635228,48.15163756,-99999.0,'11111222,11111222,99999999' 
TABS,ioos:station:wmo:42051:1,2006-04-03T21:00:00Z,29.6350,-93.6417,2.0,241.2962415,51.65783774,-99999.0,'11111222,11111222,99999999' 
TABS,ioos:station:wmo:42051:1,2006-04-03T21:30:00Z,29.6350,-93.6417,2.0,247.1958509,47.44870599,-99999.0,'11111222,11111222,99999999' 
TABS,ioos:station:wmo:42051:1,2006-04-03T22:00:00Z,29.6350,-93.6417,2.0,254.9725964,40.53618877,-99999.0,'11111222,11111222,99999999' 
TABS,ioos:station:wmo:42051:1,2006-04-03T22:30:00Z,29.6350,-93.6417,2.0,256.7476208,40.04638311,-99999.0,'11111222,11111222,99999999' 
TABS,ioos:station:wmo:42051:1,2006-04-03T23:00:00Z,29.6350,-93.6417,2.0,259.4083222,37.21400274,-99999.0,'11111222,11111222,99999999' 
TABS,ioos:station:wmo:42051:1,2006-04-03T23:30:00Z,29.6350,-93.6417,2.0,261.029405,36.74946122,-99999.0,'11111222,11111222,99999999' 
TABS,ioos:station:wmo:42051:1,2006-04-04T00:30:00Z,29.6350,-93.6417,2.0,271.1842451,35.81764509,-99999.0,'11111222,11111222,99999999' 
TABS,ioos:station:wmo:42051:1,2006-04-04T01:00:00Z,29.6350,-93.6417,2.0,272.2613713,33.20585039,-99999.0,'11111222,11111222,99999999' 
TABS,ioos:station:wmo:42051:1,2006-04-04T01:30:00Z,29.6350,-93.6417,2.0,276.3987978,28.266068,-99999.0,'11111222,11111222,99999999' 
TABS,ioos:station:wmo:42051:1,2006-04-04T02:00:00Z,29.6350,-93.6417,2.0,264.4536597,27.0064159,-99999.0,'11111222,11111222,99999999' 
TABS,ioos:station:wmo:42051:1,2006-04-04T02:30:00Z,29.6350,-93.6417,2.0,272.1887021,24.6179528,-99999.0,'11111222,11111222,99999999' 
TABS,ioos:station:wmo:42051:1,2006-04-04T03:00:00Z,29.6350,-93.6417,2.0,243.6470851,22.91091006,-99999.0,'11111222,11111222,99999999' 
TABS,ioos:station:wmo:42051:1,2006-04-04T03:30:00Z,29.6350,-93.6417,2.0,237.1212189,24.27889001,-99999.0,'11111222,11111222,99999999' 
TABS,ioos:station:wmo:42051:1,2006-04-04T04:00:00Z,29.6350,-93.6417,2.0,216.9114803,24.62600658,-99999.0,'11111222,11111222,99999999' 
TABS,ioos:station:wmo:42051:1,2006-04-04T04:30:00Z,29.6350,-93.6417,2.0,212.8922382,26.70030711,-99999.0,'11111222,11111222,99999999' 
TABS,ioos:station:wmo:42051:1,2006-04-04T05:00:00Z,29.6350,-93.6417,2.0,209.639477,25.01288668,-99999.0,'11111222,11111222,99999999' 
TABS,ioos:station:wmo:42051:1,2006-04-04T05:30:00Z,29.6350,-93.6417,2.0,195.5053046,28.0924367,-99999.0,'11111222,11111222,99999999' 
TABS,ioos:station:wmo:42051:1,2006-04-04T06:00:00Z,29.6350,-93.6417,2.0,196.0221399,28.62184655,-99999.0,'11111222,11111222,99999999' 
TABS,ioos:station:wmo:42051:1,2006-04-04T06:30:00Z,29.6350,-93.6417,2.0,183.8305132,32.03156568,-99999.0,'11111222,11111222,99999999' 
TABS,ioos:station:wmo:42051:1,2006-04-04T07:00:00Z,29.6350,-93.6417,2.0,184.4873557,30.1624684,-99999.0,'11111222,11111222,99999999' 
TABS,ioos:station:wmo:42051:1,2006-04-04T07:30:00Z,29.6350,-93.6417,2.0,182.6086255,29.0000569,-99999.0,'11111222,11111222,99999999' 
TABS,ioos:station:wmo:42051:1,2006-04-04T08:00:00Z,29.6350,-93.6417,2.0,177.0427212,28.10742607,-99999.0,'11111222,11111222,99999999' 
TABS,ioos:station:wmo:42051:1,2006-04-04T08:30:00Z,29.6350,-93.6417,2.0,179.5373076,32.21104935,-99999.0,'11111222,11111222,99999999' 
TABS,ioos:station:wmo:42051:1,2006-04-04T09:00:00Z,29.6350,-93.6417,2.0,179.4924291,30.49119545,-99999.0,'11111222,11111222,99999999' 
TABS,ioos:station:wmo:42051:1,2006-04-04T09:30:00Z,29.6350,-93.6417,2.0,178.2226417,28.05349354,-99999.0,'11111222,11111222,99999999' 
TABS,ioos:station:wmo:42051:1,2006-04-04T10:00:00Z,29.6350,-93.6417,2.0,187.1048761,24.9818374,-99999.0,'11111222,11111222,99999999' 
TABS,ioos:station:wmo:42051:1,2006-04-04T10:30:00Z,29.6350,-93.6417,2.0,201.5213354,22.43412133,-99999.0,'11111222,11111222,99999999' 
TABS,ioos:station:wmo:42051:1,2006-04-04T11:00:00Z,29.6350,-93.6417,2.0,177.3951031,24.4252349,-99999.0,'11111222,11111222,99999999' 
TABS,ioos:station:wmo:42051:1,2006-04-04T11:30:00Z,29.6350,-93.6417,2.0,185.7290294,24.44209484,-99999.0,'11111222,11111222,99999999' 
TABS,ioos:station:wmo:42051:1,2006-04-04T12:00:00Z,29.6350,-93.6417,2.0,194.3883675,21.69037114,-99999.0,'11111222,11111222,99999999' 
TABS,ioos:station:wmo:42051:1,2006-04-04T12:30:00Z,29.6350,-93.6417,2.0,173.486365,23.00851364,-99999.0,'11111222,11111222,99999999' 
TABS,ioos:station:wmo:42051:1,2006-04-04T13:00:00Z,29.6350,-93.6417,2.0,185.7388746,24.0003,-99999.0,'11111222,11111222,99999999' 
TABS,ioos:station:wmo:42051:1,2006-04-04T13:30:00Z,29.6350,-93.6417,2.0,202.9055056,25.43570129,-99999.0,'11111222,11111222,99999999' 
TABS,ioos:station:wmo:42051:1,2006-04-04T14:00:00Z,29.6350,-93.6417,2.0,222.3329101,32.37105034,-99999.0,'11111222,11111222,99999999' 
TABS,ioos:station:wmo:42051:1,2006-04-04T14:30:00Z,29.6350,-93.6417,2.0,239.1225299,32.89175125,-99999.0,'11111222,11111222,99999999' 
TABS,ioos:station:wmo:42051:1,2006-04-04T15:00:00Z,29.6350,-93.6417,2.0,247.9531617,39.50890153,-99999.0,'11111222,11111222,99999999' 
TABS,ioos:station:wmo:42051:1,2006-04-04T15:30:00Z,29.6350,-93.6417,2.0,254.614601,42.55496446,-99999.0,'11111222,11111222,99999999' 
TABS,ioos:station:wmo:42051:1,2006-04-04T16:30:00Z,29.6350,-93.6417,2.0,272.6198852,47.69984172,-99999.0,'11111222,11111222,99999999' 
TABS,ioos:station:wmo:42051:1,2006-04-04T17:00:00Z,29.6350,-93.6417,2.0,277.9813647,49.98413348,-99999.0,'11111222,11111222,99999999' 
TABS,ioos:station:wmo:42051:1,2006-04-04T17:30:00Z,29.6350,-93.6417,2.0,284.9382054,57.64815348,-99999.0,'11111222,11111222,99999999' 
TABS,ioos:station:wmo:42051:1,2006-04-04T18:00:00Z,29.6350,-93.6417,2.0,294.0601046,58.62312598,-99999.0,'11111222,11111222,99999999' 
TABS,ioos:station:wmo:42051:1,2006-04-04T18:30:00Z,29.6350,-93.6417,2.0,298.1194894,54.91119467,-99999.0,'11111222,11111222,99999999' 
TABS,ioos:station:wmo:42051:1,2006-04-04T19:00:00Z,29.6350,-93.6417,2.0,301.4847348,55.48894304,-99999.0,'11111222,11111222,99999999' 
TABS,ioos:station:wmo:42051:1,2006-04-04T19:30:00Z,29.6350,-93.6417,2.0,307.0535238,47.51424313,-99999.0,'11111222,11111222,99999999' 
TABS,ioos:station:wmo:42051:1,2006-04-04T20:00:00Z,29.6350,-93.6417,2.0,312.0289326,49.3800162,-99999.0,'11111222,11111222,99999999' 
TABS,ioos:station:wmo:42051:1,2006-04-04T20:30:00Z,29.6350,-93.6417,2.0,314.4846332,45.56780662,-99999.0,'11111222,11111222,99999999' 
TABS,ioos:station:wmo:42051:1,2006-04-04T21:00:00Z,29.6350,-93.6417,2.0,320.0162026,40.68007498,-99999.0,'11111222,11111222,99999999' 
TABS,ioos:station:wmo:42051:1,2006-04-04T21:30:00Z,29.6350,-93.6417,2.0,320.509904,37.70743163,-99999.0,'11111222,11111222,99999999' 